Weather History for Angel Fire, NM

Change the Weather History Date:

Tuesday, March 26, 2013

  Actual Average (KSKX) Record (KSKX)
Temperature  
Mean Temperature 32 °F -  
Max Temperature 50 °F 56 °F 71 °F (2004)
Min Temperature 13 °F 23 °F 12 °F (2002)
Degree Days  
Heating Degree Days 34    
Moisture  
Dew Point 10 °F    
Average Humidity 43    
Maximum Humidity 77    
Minimum Humidity 19    
Precipitation  
Precipitation 0.00 in - - ()
Sea Level Pressure  
Sea Level Pressure 30.13 in    
Wind  
Wind Speed 10 mph (SW)    
Max Wind Speed 20 mph    
Max Gust Speed 36 mph    
Visibility 10 miles    
Events      
Averages and records for this station are not official NWS values.
T = Trace of Precipitation, MM = Missing Value Source: NWS Daily Summary

Daily Weather History Graph

Daily Weather History Graph

Search for Another Location

Airport:

Trip Planner

Search our weather history database for the weather conditions in past years. The results will help you decide how hot, cold, wet, or windy it might be!

Date:

Astronomy

Mar. 26, 2013 Rise Set
Actual Time 6:55 AM MDT 7:18 PM MDT
Civil Twilight 6:29 AM MDT 7:44 PM MDT
Nautical Twilight 5:59 AM MDT 8:14 PM MDT
Astronomical Twilight 5:28 AM MDT 8:45 PM MDT
Moon 6:57 PM MDT (3/26) 6:13 AM MDT (3/26)
Length of Visible Light 13h 14m
Length of Day
12h 22m
Waxing Gibbous, 99% of the Moon is Illuminated
Mar 26
Waxing Gibbous
Mar 27
Full
Apr 2
Last Quarter
Apr 10
New
Apr 18
First Quarter

Hourly Weather History & Observations

Time (MDT) Temp. Windchill Dew Point Humidity Pressure Visibility Wind Dir Wind Speed Gust Speed Precip Events Conditions
12:15 AM 21.0 °F 9.3 °F 5.9 °F 52% 30.20 in 10.0 mi SSW 11.5 mph 19.6 mph N/A   Clear
12:35 AM 20.8 °F 9.0 °F 6.1 °F 53% 30.20 in 10.0 mi SSW 11.5 mph - N/A   Clear
12:55 AM 20.3 °F 7.2 °F 6.1 °F 54% 30.19 in 10.0 mi SSW 13.8 mph 17.3 mph N/A   Clear
1:15 AM 20.7 °F 7.1 °F 5.9 °F 53% 30.18 in 10.0 mi SSW 15.0 mph - N/A   Clear
1:35 AM 20.3 °F 5.7 °F 5.9 °F 54% 30.18 in 10.0 mi South 17.3 mph - N/A   Clear
1:55 AM 20.7 °F 6.6 °F 5.9 °F 53% 30.18 in 10.0 mi SSW 16.1 mph - N/A   Scattered Clouds
2:15 AM 20.7 °F 7.1 °F 5.9 °F 53% 30.18 in 10.0 mi South 15.0 mph - N/A   Scattered Clouds
2:35 AM 20.5 °F 8.0 °F 5.9 °F 53% 30.17 in 10.0 mi South 12.7 mph - N/A   Scattered Clouds
2:55 AM 21.2 °F 9.5 °F 5.9 °F 52% 30.16 in 10.0 mi South 11.5 mph - N/A   Mostly Cloudy
3:15 AM 21.0 °F 11.4 °F 6.4 °F 53% 30.16 in 10.0 mi SSE 8.1 mph - N/A   Overcast
3:35 AM 20.1 °F - 6.4 °F 55% 30.16 in 10.0 mi Calm Calm - N/A   Mostly Cloudy
3:55 AM 19.4 °F 11.5 °F 6.6 °F 58% 30.16 in 10.0 mi SSE 5.8 mph - N/A   Clear
4:15 AM 17.4 °F 10.4 °F 7.2 °F 64% 30.16 in 10.0 mi SE 4.6 mph - N/A   Clear
4:35 AM 16.0 °F 6.3 °F 7.2 °F 68% 30.15 in 10.0 mi SE 6.9 mph - N/A   Clear
4:55 AM 16.7 °F 9.6 °F 7.3 °F 67% 30.14 in 10.0 mi SSE 4.6 mph - N/A   Clear
5:15 AM 15.4 °F - 7.7 °F 71% 30.14 in 10.0 mi Calm Calm - N/A   Clear
5:35 AM 13.6 °F 6.0 °F 7.5 °F 77% 30.14 in 10.0 mi WSW 4.6 mph - N/A   Clear
5:55 AM 14.0 °F - 7.7 °F 76% 30.15 in 10.0 mi Calm Calm - N/A   Clear
6:15 AM 14.4 °F 6.9 °F 7.7 °F 75% 30.15 in 10.0 mi South 4.6 mph - N/A   Clear
6:35 AM 14.2 °F 5.3 °F 7.7 °F 75% 30.16 in 10.0 mi South 5.8 mph - N/A   Clear
6:55 AM 15.4 °F 8.1 °F 8.2 °F 73% 30.16 in 10.0 mi WSW 4.6 mph - N/A   Clear
7:15 AM 17.1 °F 10.0 °F 8.6 °F 69% 30.16 in 10.0 mi South 4.6 mph - N/A   Clear
7:35 AM 19.2 °F 12.5 °F 10.0 °F 67% 30.16 in 10.0 mi SW 4.6 mph - N/A   Clear
7:55 AM 22.6 °F 18.0 °F 11.8 °F 63% 30.17 in 10.0 mi South 3.5 mph - N/A   Clear
8:15 AM 28.0 °F 21.7 °F 9.0 °F 45% 30.18 in 10.0 mi SSW 5.8 mph - N/A   Clear
8:35 AM 30.2 °F 23.4 °F 8.8 °F 41% 30.18 in 10.0 mi WSW 6.9 mph - N/A   Clear
8:55 AM 32.0 °F 23.6 °F 8.6 °F 38% 30.17 in 10.0 mi SW 10.4 mph - N/A   Clear
9:15 AM 34.0 °F 27.2 °F 9.0 °F 35% 30.18 in 10.0 mi SW 8.1 mph - N/A   Clear
9:35 AM 35.2 °F 28.1 °F 8.6 °F 33% 30.17 in 10.0 mi WSW 9.2 mph 16.1 mph N/A   Clear
9:55 AM 36.9 °F 28.7 °F 8.8 °F 31% 30.17 in 10.0 mi West 12.7 mph 24.2 mph N/A   Clear
10:35 AM 38.3 °F 29.3 °F 9.1 °F 30% 30.18 in 10.0 mi West 16.1 mph 23.0 mph N/A   Clear
10:55 AM 39.2 °F 32.5 °F 9.3 °F 29% 30.18 in 10.0 mi West 10.4 mph 18.4 mph N/A   Clear
11:15 AM 41.0 °F 38.0 °F 9.7 °F 28% 30.17 in 10.0 mi WNW 4.6 mph - N/A   Clear
11:35 AM 42.6 °F 35.6 °F 10.2 °F 27% 30.16 in 10.0 mi WSW 13.8 mph 19.6 mph N/A   Clear
11:55 AM 43.9 °F 36.5 °F 11.1 °F 26% 30.15 in 10.0 mi West 16.1 mph 19.6 mph N/A   Clear
12:15 PM 45.1 °F 39.9 °F 11.3 °F 25% 30.15 in 10.0 mi West 10.4 mph 19.6 mph N/A   Clear
12:35 PM 46.0 °F 40.2 °F 11.1 °F 24% 30.15 in 10.0 mi WSW 12.7 mph 20.7 mph N/A   Clear
12:55 PM 46.9 °F - 11.3 °F 24% 30.14 in 10.0 mi West 15.0 mph 20.7 mph N/A   Clear
1:15 PM 47.7 °F - 11.5 °F 23% 30.13 in 10.0 mi West 15.0 mph 23.0 mph N/A   Clear
1:35 PM 47.5 °F - 10.8 °F 23% 30.13 in 10.0 mi WSW 5.8 mph 20.7 mph N/A   Clear
1:55 PM 50.2 °F - 12.0 °F 22% 30.12 in 10.0 mi West 17.3 mph 24.2 mph N/A   Clear
2:15 PM 49.3 °F - 11.5 °F 22% 30.11 in 10.0 mi West 16.1 mph 24.2 mph N/A   Clear
2:35 PM 49.3 °F - 11.5 °F 22% 30.10 in 10.0 mi West 17.3 mph 23.0 mph N/A   Clear
2:55 PM 49.3 °F - 12.0 °F 22% 30.10 in 10.0 mi West 19.6 mph 35.7 mph N/A   Scattered Clouds
3:15 PM 48.9 °F - 11.8 °F 23% 30.09 in 10.0 mi West 17.3 mph 26.5 mph N/A   Scattered Clouds
3:35 PM 50.0 °F - 11.7 °F 21% 30.08 in 10.0 mi West 12.7 mph 26.5 mph N/A   Scattered Clouds
3:55 PM 50.5 °F - 11.8 °F 21% 30.07 in 10.0 mi West 9.2 mph 24.2 mph N/A   Scattered Clouds
4:15 PM 50.9 °F - 11.7 °F 21% 30.07 in 10.0 mi SW 16.1 mph 33.4 mph N/A   Scattered Clouds
4:35 PM 50.2 °F - 10.2 °F 20% 30.06 in 10.0 mi SW 15.0 mph 31.1 mph N/A   Scattered Clouds
4:55 PM 50.2 °F - 10.6 °F 20% 30.07 in 10.0 mi SW 12.7 mph 24.2 mph N/A   Clear
5:15 PM 49.1 °F - 9.3 °F 20% 30.06 in 10.0 mi SW 18.4 mph 26.5 mph N/A   Clear
5:35 PM 49.3 °F - 8.4 °F 19% 30.06 in 10.0 mi WSW 17.3 mph 34.5 mph N/A   Clear
5:55 PM 48.2 °F - 8.2 °F 20% 30.06 in 10.0 mi WSW 17.3 mph 25.3 mph N/A   Clear
6:15 PM 47.3 °F - 8.4 °F 21% 30.05 in 10.0 mi WSW 13.8 mph 23.0 mph N/A   Clear
6:35 PM 46.2 °F 39.3 °F 9.3 °F 22% 30.05 in 10.0 mi SW 17.3 mph 21.9 mph N/A   Clear
6:55 PM 45.1 °F 39.5 °F 9.3 °F 23% 30.06 in 10.0 mi SW 11.5 mph 25.3 mph N/A   Clear
7:15 PM 44.4 °F 38.2 °F 9.5 °F 24% 30.06 in 10.0 mi SW 12.7 mph 20.7 mph N/A   Clear
7:35 PM 43.5 °F 38.9 °F 9.9 °F 25% 30.06 in 10.0 mi SW 8.1 mph 18.4 mph N/A   Clear
7:55 PM 42.3 °F 36.8 °F 10.2 °F 27% 30.07 in 10.0 mi SSW 9.2 mph - N/A   Clear
8:15 PM 41.4 °F 35.2 °F 10.2 °F 28% 30.07 in 10.0 mi SSW 10.4 mph - N/A   Clear
8:35 PM 41.0 °F 35.8 °F 10.0 °F 28% 30.07 in 10.0 mi SSW 8.1 mph 17.3 mph N/A   Clear
8:55 PM 38.1 °F - 10.4 °F 32% 30.07 in 10.0 mi Calm Calm - N/A   Clear
9:15 PM 32.0 °F - 12.9 °F 45% 30.08 in 10.0 mi Calm Calm - N/A   Clear
9:35 PM 30.0 °F - 13.5 °F 50% 30.09 in 10.0 mi Calm Calm - N/A   Clear
9:55 PM 27.9 °F - 14.4 °F 57% 30.09 in 10.0 mi Calm Calm - N/A   Clear
10:15 PM 27.7 °F - 14.4 °F 57% 30.09 in 10.0 mi Calm Calm - N/A   Clear
10:35 PM 25.2 °F - 13.8 °F 62% 30.09 in 10.0 mi Calm Calm - N/A   Clear
10:55 PM 24.1 °F - 12.9 °F 62% 30.09 in 10.0 mi Calm Calm - N/A   Clear
11:15 PM 22.6 °F - 13.5 °F 68% 30.09 in 10.0 mi Calm Calm - N/A   Clear
11:35 PM 20.8 °F - 13.6 °F 74% 30.08 in 10.0 mi Calm Calm - N/A   Clear
11:55 PM 21.6 °F - 13.8 °F 72% 30.08 in 10.0 mi Calm Calm - N/A   Clear